{"data":{"norad_id":63284,"epoch":"2026-09-19T05:39:26.741088Z","epoch_age_seconds":268023,"freshness":"STALE","line1":"1 63284U 25053V   26262.23572617  .00014115  00000+0  52135-3 0  9999","line2":"2 63284  42.9986 220.9408 0001483 262.3284  97.7399 15.27588286 85998","mean_motion":15.27588286,"eccentricity":0.0001483,"inclination_deg":42.9986,"raan_deg":220.9408,"arg_perigee_deg":262.3284,"mean_anomaly_deg":97.7399,"bstar":0.00052135,"rev_number":8599,"period_min":94.266237388521,"perigee_km":482.00677466838,"apogee_km":484.04179510548,"semimajor_km":6861.1612848869,"source":"CELESTRAK","updated_at":"2026-09-21T09:00:34.965967Z"}}